[[{"header":{"parameterUnit":"m.s-1","parameterCategory":2,"la1":30.2991,"la2":30.254,"lo1":-89.0895,"lo2":-89.0444,"dy":0.0017,"dx":0.0017,"nx":28,"ny":28,"refTime":"2025-04-06T09:00:00:Z","depth":"0","parameterNumber":2,"parameterNumberName":"U-component_of_CURRENTS"},"data":[0,0,0,0,0,0,0,0,0,0,0,0,0,0,0,0,0,0,0,0,0,0,0,0,0,0,0,0,0,0,0,0,0,0,0,0,0,0,0,0,0,0,0,0,0,0,0,0,0,0,0,0,0,0,0,0,0,0,0.2579,0.258,0,0.2605,0.2605,0.2605,0.2606,0.2606,0.2606,0.2606,0.2588,0.2588,0.2587,0,0,0,0,0,0,0,0,0,0,0,0,0,0.2563,0.2563,0.2579,0.258,0.258,0.2605,0.2605,0.2605,0.2606,0.2606,0.2606,0.2606,0.2588,0.2588,0.2587,0,0,0,0,0,0,0,0,0,0,0,0,0,0.2575,0.2563,0.2579,0.2586,0.2587,0.2605,0.2605,0.2605,0.2606,0.2606,0.2606,0.2606,0.2588,0.2588,0.2587,0.2586,0,0,0.2585,0.2585,0,0,0,0,0,0,0,0,0.2574,0.2575,0.2584,0.2585,0.2587,0.2604,0.2593,0.2597,0.2606,0.2596,0.2606,0.2606,0.2591,0.259,0.2592,0.2585,0.2584,0.2585,0.2585,0.2585,0.2584,0,0,0,0,0,0,0,0.2574,0.2575,0.2587,0.2585,0.2586,0.2598,0.2599,0.2594,0.2591,0.2597,0.2598,0.2605,0.2591,0.2593,0.2592,0.2584,0.2585,0.2585,0.2584,0.2584,0.2602,0.2603,0,0,0,0,0,0,0.2574,0.2574,0.2586,0.2588,0.2583,0.2599,0.26,0.2597,0.2592,0.2593,0.2605,0.2605,0.2594,0.2593,0.2591,0.2614,0.2585,0.2584,0.2584,0.2601,0.2602,0.2603,0,0,0,0,0,0,0.2573,0.2574,0.2585,0.2584,0.2586,0.2599,0.2596,0.2597,0.2601,0.2599,0.2598,0.2607,0.2594,0.2592,0.2597,0.2612,0.2584,0.2583,0.26,0.2601,0.2602,0.2643,0,0,0,0,0,0,0.2572,0.2573,0.257,0.2584,0.2587,0.2598,0.2596,0.2598,0.2606,0.2606,0.2601,0.2599,0.2594,0.2598,0.2597,0.2611,0.2583,0.2599,0.26,0.2602,0.264,0.2645,0.2649,0,0,0,0,0,0.2571,0.2562,0.257,0.2571,0.2581,0.2599,0.2601,0.2609,0.2606,0.261,0.2612,0.2599,0.2607,0.2598,0.2596,0.261,0.2598,0.26,0.2602,0.2638,0.2644,0.2649,0,0,0,0,0,0,0.2532,0.2562,0.257,0.2565,0.2585,0.26,0.2603,0.261,0.2614,0.2615,0.2607,0.2606,0.2619,0.2608,0.2599,0.2621,0.2601,0.2603,0.263,0.2635,0.2639,0.2616,0.2582,0,0,0,0,0,0.2529,0.2539,0.2565,0.2559,0.2572,0.2589,0.2596,0.2607,0.2615,0.2617,0.2615,0.2616,0.2625,0.2624,0.2627,0.2634,0.2615,0.2642,0.2647,0.2651,0.2631,0.2622,0.2623,0.2609,0.2609,0.2609,0,0,0.2509,0.2528,0.253,0.2554,0.2569,0.2584,0.2592,0.2608,0.2619,0.2614,0.262,0.263,0.2631,0.2647,0.265,0.2638,0.2651,0.2653,0.2657,0.2634,0.2624,0.2625,0.2626,0.261,0.261,0.261,0,0,0.2481,0.2496,0.2502,0.2527,0.2562,0.2578,0.2585,0.2609,0.262,0.2634,0.2641,0.2656,0.2658,0.2669,0.2672,0.2699,0.2677,0.2707,0.2707,0.2699,0.27,0.27,0.2699,0.2699,0.2707,0.2707,0.2707,0,0.245,0.2464,0.2503,0.2521,0.2538,0.2575,0.2585,0.2605,0.2627,0.2634,0.2638,0.2657,0.2665,0.2684,0.2702,0.2708,0.2699,0.2688,0.2704,0.2703,0.2703,0.2702,0.2701,0.2709,0.2709,0.2708,0.2708,0,0.2435,0.2451,0.2456,0.2495,0.2522,0.2535,0.2581,0.26,0.2618,0.2635,0.2658,0.2677,0.2683,0.2703,0.271,0.2722,0.2718,0.2714,0.2687,0.2706,0.2705,0.2703,0.2712,0.2711,0.2711,0.271,0,0,0.2333,0.2426,0.2423,0.2445,0.2512,0.2523,0.2561,0.2593,0.2605,0.2635,0.2642,0.2679,0.269,0.2695,0.2717,0.2717,0.2728,0.2714,0.2713,0.2708,0.2714,0.2732,0.2732,0.2726,0.2726,0.2725,0.2722,0,0.2297,0.233,0.2389,0.2409,0.243,0.2493,0.2519,0.2562,0.2599,0.2618,0.2651,0.2669,0.2689,0.2702,0.2707,0.2727,0.2721,0.2728,0.2699,0.2698,0.2707,0.2729,0.2689,0.2684,0.272,0.272,0.272,0,0.2253,0.2285,0.2309,0.2378,0.239,0.2408,0.2459,0.2492,0.255,0.2582,0.2615,0.2644,0.2674,0.2677,0.2698,0.2703,0.27,0.2707,0.2707,0.2699,0.2712,0.2667,0.2679,0.2653,0.2717,0.2717,0.2717,0,0.2163,0.2221,0.2239,0.2262,0.2346,0.236,0.2396,0.2466,0.2508,0.2558,0.259,0.2623,0.2654,0.265,0.2696,0.2688,0.2709,0.2698,0.2704,0.2706,0.265,0.2648,0.2623,0.2676,0.2676,0.2676,0.2676,0,0.2104,0.2111,0.2194,0.2202,0.2216,0.2293,0.232,0.2371,0.245,0.2494,0.2558,0.2605,0.2647,0.2683,0.2687,0.2711,0.2703,0.2698,0.2703,0.2668,0.2667,0.2624,0.2613,0.2676,0.2676,0.2676,0.2676,0,0.202,0.2073,0.2095,0.2164,0.2183,0.2192,0.2291,0.2316,0.2398,0.2461,0.248,0.2597,0.2653,0.2696,0.2716,0.2715,0.2664,0.2721,0.2689,0.269,0.2659,0.2652,0.2496,0.2411,0.2709,0.2709,0.2709,0,0.1988,0.1992,0.2056,0.2069,0.21,0.2137,0.217,0.2274,0.2322,0.2458,0.248,0.2578,0.2656,0.2723,0.2742,0.2753,0.2671,0.2698,0.2667,0.2649,0.2644,0.2529,0.246,0.2616,0.2615,0.2615,0.2615,0,0.1925,0.1946,0.1968,0.1999,0.2026,0.2065,0.2121,0.216,0.228,0.2357,0.2464,0.2542,0.2657,0.2692,0.2737,0.2733,0.2604,0.2691,0.2666,0.2563,0.2436,0.2362,0.2637,0.2611,0.2611,0.2612,0.2612,0.2612,0.1874,0.1872,0.1902,0.1925,0.1955,0.1978,0.1989,0.2071,0.2149,0.2255,0.2383,0.2487,0.2621,0.2706,0.268,0.2653,0.2586,0.2591,0.2583,0.2467,0.2377,0.2657,0.2646,0.2646,0.2647,0.2647,0.2647,0,0.181,0.1817,0.1832,0.1853,0.1853,0.1896,0.1944,0.1954,0.2016,0.2164,0.2269,0.2437,0.2516,0.2589,0.2646,0.2573,0.242,0.2505,0.2331,0.2265,0.2524,0.2516,0.2482,0.2482,0.2482,0.2482,0.2482,0.2482,0.1775,0.1759,0.177,0.1747,0.1758,0.1736,0.1745,0.1784,0.1872,0.1998,0.2114,0.224,0.2495,0.2654,0.2628,0.2548,0.2337,0.2252,0.2194,0.2422,0.2429,0.2435,0.2425,0.2372,0.2372,0.1843,0.184,0.1837]},{"header":{"parameterUnit":"m.s-1","parameterCategory":2,"la1":30.2991,"la2":30.254,"lo1":-89.0895,"lo2":-89.0444,"dy":0.0017,"dx":0.0017,"nx":28,"ny":28,"refTime":"2025-04-06T09:00:00:Z","depth":"0","parameterNumber":3,"parameterNumberName":"V-component_of_CURRENTS"},"data":[0,0,0,0,0,0,0,0,0,0,0,0,0,0,0,0,0,0,0,0,0,0,0,0,0,0,0,0,0,0,0,0,0,0,0,0,0,0,0,0,0,0,0,0,0,0,0,0,0,0,0,0,0,0,0,0,0,0,-0.0207,-0.0207,0,-0.0243,-0.0244,-0.0244,-0.0279,-0.0279,-0.0279,-0.028,-0.0344,-0.0345,-0.0347,0,0,0,0,0,0,0,0,0,0,0,0,0,-0.0217,-0.0216,-0.0207,-0.0207,-0.0207,-0.0243,-0.0244,-0.0245,-0.0279,-0.0279,-0.0279,-0.028,-0.0344,-0.0345,-0.0347,0,0,0,0,0,0,0,0,0,0,0,0,0,-0.0231,-0.0216,-0.0207,-0.0227,-0.0229,-0.0243,-0.0244,-0.0245,-0.0279,-0.0279,-0.028,-0.028,-0.0343,-0.0345,-0.0347,-0.0354,0,0,-0.0354,-0.0355,0,0,0,0,0,0,0,0,-0.023,-0.023,-0.0224,-0.0226,-0.0228,-0.0255,-0.0271,-0.0282,-0.0279,-0.0262,-0.028,-0.028,-0.0315,-0.032,-0.0328,-0.0357,-0.036,-0.0354,-0.0356,-0.0357,-0.0357,0,0,0,0,0,0,0,-0.0229,-0.0229,-0.0224,-0.0224,-0.0227,-0.0251,-0.0254,-0.0273,-0.0289,-0.0264,-0.0266,-0.0266,-0.0317,-0.0326,-0.033,-0.0361,-0.0354,-0.0356,-0.0358,-0.0359,-0.0404,-0.0404,0,0,0,0,0,0,-0.0217,-0.0228,-0.0222,-0.0224,-0.0227,-0.025,-0.0253,-0.0248,-0.0288,-0.0293,-0.0266,-0.0268,-0.0322,-0.0328,-0.0333,-0.0337,-0.0357,-0.0359,-0.036,-0.0404,-0.0404,-0.0404,0,0,0,0,0,0,-0.0217,-0.0216,-0.0221,-0.0226,-0.0228,-0.0249,-0.0244,-0.0248,-0.0255,-0.0289,-0.0295,-0.0267,-0.0323,-0.0329,-0.0352,-0.034,-0.036,-0.0362,-0.0404,-0.0404,-0.0404,-0.0349,0,0,0,0,0,0,-0.0217,-0.0215,-0.021,-0.0225,-0.0227,-0.0219,-0.0243,-0.0249,-0.0253,-0.0256,-0.0292,-0.0298,-0.0323,-0.0349,-0.0354,-0.0343,-0.0364,-0.0404,-0.0404,-0.0404,-0.0351,-0.0347,-0.0343,0,0,0,0,0,-0.0217,-0.0204,-0.0209,-0.0209,-0.0218,-0.0218,-0.0222,-0.0241,-0.0253,-0.0249,-0.0281,-0.0297,-0.0351,-0.0351,-0.0357,-0.0346,-0.0405,-0.0404,-0.0404,-0.0352,-0.0347,-0.0343,0,0,0,0,0,0,-0.0203,-0.0206,-0.0212,-0.0201,-0.0205,-0.0223,-0.0224,-0.0235,-0.0257,-0.0262,-0.0298,-0.0307,-0.0323,-0.0343,-0.0342,-0.036,-0.0379,-0.038,-0.0337,-0.0333,-0.0329,-0.0298,-0.0365,0,0,0,0,0,-0.0196,-0.0188,-0.0196,-0.0185,-0.0188,-0.0205,-0.0209,-0.0217,-0.0237,-0.0247,-0.0271,-0.03,-0.0327,-0.0337,-0.0363,-0.037,-0.0384,-0.0368,-0.0364,-0.036,-0.034,-0.0357,-0.0352,-0.0403,-0.0403,-0.0403,0,0,-0.0188,-0.0188,-0.0184,-0.0182,-0.0191,-0.0182,-0.0209,-0.0207,-0.0198,-0.025,-0.0253,-0.029,-0.0328,-0.0341,-0.0349,-0.0355,-0.0356,-0.036,-0.0357,-0.0338,-0.0356,-0.0351,-0.0346,-0.0403,-0.0403,-0.0403,0,0,-0.0159,-0.0167,-0.0149,-0.0151,-0.0154,-0.0164,-0.0159,-0.0173,-0.0179,-0.0189,-0.0226,-0.0252,-0.0288,-0.0309,-0.0327,-0.0317,-0.0339,-0.0327,-0.0275,-0.0293,-0.0288,-0.0284,-0.0301,-0.0299,-0.0319,-0.0319,-0.0319,0,-0.0145,-0.0123,-0.0144,-0.0127,-0.0121,-0.0151,-0.0127,-0.0139,-0.0156,-0.0153,-0.0182,-0.0232,-0.0271,-0.0278,-0.028,-0.0306,-0.0318,-0.0289,-0.0286,-0.0282,-0.0279,-0.0297,-0.0296,-0.0317,-0.0317,-0.0317,-0.0317,0,-0.0101,-0.0088,-0.0078,-0.0067,-0.0066,-0.0051,-0.0065,-0.0064,-0.0082,-0.0094,-0.0108,-0.0166,-0.019,-0.0212,-0.0246,-0.0239,-0.0257,-0.0283,-0.0292,-0.027,-0.0292,-0.0291,-0.0313,-0.0314,-0.0315,-0.0315,0,0,-0.0047,-0.0046,-0.0039,-0.0023,-0.0029,-0.0017,-0.0007,0.0003,0.0019,-0.0017,0.0,-0.006,-0.009,-0.0111,-0.0157,-0.0173,-0.0179,-0.021,-0.0213,-0.0217,-0.0211,-0.0235,-0.0238,-0.0203,-0.0202,-0.0202,-0.0236,0,0.0001,0.0045,0.0032,0.0074,0.0095,0.0072,0.0086,0.0086,0.0072,0.0076,0.0023,0.0007,-0.0052,-0.0068,-0.0091,-0.0159,-0.0173,-0.0166,-0.0239,-0.0241,-0.0257,-0.0236,-0.0229,-0.026,-0.0236,-0.0236,-0.0236,0,0.0059,0.0081,0.0129,0.0151,0.0159,0.0172,0.0198,0.0209,0.0197,0.0185,0.0163,0.0113,0.0078,0.002,-0.0058,-0.0051,-0.0116,-0.017,-0.0173,-0.0208,-0.0263,-0.0278,-0.026,-0.0396,-0.0235,-0.0235,-0.0235,0,0.0118,0.0155,0.0196,0.0203,0.0217,0.0236,0.0245,0.0244,0.0272,0.0256,0.0264,0.0207,0.0179,0.0097,-0.0026,-0.0039,-0.0114,-0.0152,-0.023,-0.0233,-0.0246,-0.0251,-0.0356,-0.0193,-0.0192,-0.0192,-0.0192,0,0.018,0.0216,0.0226,0.0248,0.0306,0.0291,0.0349,0.0347,0.0361,0.0399,0.0324,0.0337,0.0198,0.0128,0.0015,-0.0103,-0.0086,-0.0206,-0.0237,-0.0229,-0.0232,-0.0366,-0.0457,-0.0194,-0.0193,-0.0193,-0.0193,0,0.0236,0.024,0.0292,0.0318,0.0332,0.0372,0.0422,0.0465,0.0457,0.0506,0.0503,0.0443,0.0347,0.0202,0.0062,-0.0046,-0.0246,-0.0211,-0.0192,-0.0221,-0.0419,-0.0506,-0.0644,-0.0699,-0.0292,-0.0293,-0.0294,0,0.0266,0.0297,0.0348,0.0386,0.0398,0.0455,0.05,0.0516,0.0567,0.0575,0.0608,0.0526,0.0493,0.0275,0.0061,-0.0133,-0.027,-0.0257,-0.0282,-0.0416,-0.0536,-0.06,-0.0641,-0.0283,-0.0284,-0.0284,-0.0284,0,0.0328,0.0341,0.0383,0.046,0.0514,0.0585,0.0646,0.0703,0.0723,0.076,0.0789,0.0759,0.0539,0.035,0.0067,-0.0082,-0.0362,-0.0271,-0.0412,-0.0533,-0.0605,-0.0677,-0.0281,-0.0288,-0.0287,-0.0287,-0.0287,-0.0287,0.0373,0.0415,0.0468,0.0545,0.0611,0.0697,0.0771,0.084,0.0926,0.099,0.0941,0.0934,0.0626,0.0246,0.0017,-0.039,-0.0399,-0.0501,-0.0594,-0.0643,-0.0704,-0.0314,-0.0358,-0.0358,-0.0358,-0.0358,-0.0358,0,0.0429,0.0474,0.0551,0.0639,0.0724,0.0745,0.0861,0.0944,0.1055,0.1111,0.114,0.0985,0.0612,0.0216,-0.0333,-0.0635,-0.0748,-0.0816,-0.0905,-0.0928,-0.0577,-0.0584,-0.0675,-0.0675,-0.0675,-0.0674,-0.0674,-0.0674,0.0459,0.0537,0.0575,0.0717,0.0784,0.0907,0.098,0.1097,0.1176,0.1261,0.1262,0.1227,0.0911,-0.0096,-0.0782,-0.0953,-0.117,-0.1243,-0.1342,-0.1113,-0.109,-0.1069,-0.1095,-0.1292,-0.1293,-0.1633,-0.1637,-0.164]}],[{"header":{"parameterUnit":"m.s-1","parameterCategory":2,"la1":30.2991,"la2":30.254,"lo1":-89.0895,"lo2":-89.0444,"dy":0.0017,"dx":0.0017,"nx":28,"ny":28,"refTime":"2025-04-06T09:00:00:Z","depth":"2","parameterNumber":2,"parameterNumberName":"U-component_of_CURRENTS"},"data":[0,0,0,0,0,0,0,0,0,0,0,0,0,0,0,0,0,0,0,0,0,0,0,0,0,0,0,0,0,0,0,0,0,0,0,0,0,0,0,0,0,0,0,0,0,0,0,0,0,0,0,0,0,0,0,0,0,0,0.2344,0.2344,0,0.236,0.236,0.236,0.2355,0.2355,0.2355,0.2355,0.2376,0.2376,0.2377,0,0,0,0,0,0,0,0,0,0,0,0,0,0.2308,0.2308,0.2344,0.2344,0.2345,0.236,0.236,0.236,0.2355,0.2355,0.2355,0.2356,0.2376,0.2376,0.2377,0,0,0,0,0,0,0,0,0,0,0,0,0,0.2317,0.2308,0.2343,0.2349,0.2351,0.2361,0.236,0.236,0.2355,0.2355,0.2355,0.2356,0.2376,0.2376,0.2377,0.2372,0,0,0.2378,0.2378,0,0,0,0,0,0,0,0,0.2317,0.2318,0.2348,0.2349,0.235,0.2362,0.2355,0.2366,0.2354,0.2346,0.2355,0.2356,0.2376,0.2376,0.2369,0.2373,0.2374,0.2378,0.2379,0.2379,0.2379,0,0,0,0,0,0,0,0.2316,0.2317,0.2344,0.2349,0.235,0.2352,0.2353,0.2357,0.2354,0.2347,0.2348,0.236,0.2375,0.2368,0.237,0.2374,0.2378,0.2379,0.2379,0.2379,0.2417,0.2418,0,0,0,0,0,0,0.2327,0.2317,0.2343,0.2345,0.2342,0.2353,0.2353,0.2352,0.2354,0.2356,0.236,0.236,0.2368,0.2369,0.237,0.241,0.2379,0.2379,0.2379,0.2416,0.2417,0.2418,0,0,0,0,0,0,0.2326,0.2328,0.2343,0.2337,0.234,0.2354,0.2352,0.2353,0.2363,0.2365,0.2366,0.2372,0.2368,0.237,0.2382,0.241,0.2379,0.238,0.2416,0.2417,0.2418,0.2462,0,0,0,0,0,0,0.2324,0.2327,0.2331,0.2337,0.2341,0.236,0.2352,0.2353,0.2372,0.2372,0.2375,0.2376,0.2368,0.2381,0.2382,0.241,0.238,0.2415,0.2416,0.2417,0.2459,0.2464,0.2468,0,0,0,0,0,0.2323,0.232,0.2331,0.2335,0.2345,0.2361,0.2362,0.2369,0.2372,0.2378,0.2377,0.2377,0.2391,0.2382,0.2383,0.2411,0.2414,0.2416,0.2417,0.2457,0.2463,0.2468,0,0,0,0,0,0,0.2294,0.2321,0.2332,0.2335,0.2357,0.2363,0.2369,0.238,0.2382,0.2384,0.2381,0.2382,0.2405,0.2399,0.2389,0.2426,0.2405,0.2407,0.2435,0.2441,0.2445,0.2419,0.2381,0,0,0,0,0,0.2295,0.2307,0.2332,0.2336,0.2348,0.2364,0.2373,0.2383,0.2389,0.2391,0.2395,0.2399,0.241,0.2418,0.242,0.2438,0.2421,0.2458,0.2463,0.2467,0.2446,0.2443,0.2445,0.2423,0.2423,0.2423,0,0,0.2284,0.2304,0.2308,0.2334,0.2346,0.2359,0.2368,0.2388,0.2399,0.2393,0.2404,0.2415,0.2417,0.2436,0.2447,0.2437,0.2469,0.2469,0.2472,0.2449,0.2445,0.2447,0.2449,0.2424,0.2424,0.2424,0,0,0.2267,0.2288,0.2292,0.2315,0.2352,0.2364,0.2377,0.2397,0.2408,0.2424,0.2427,0.2448,0.246,0.2466,0.2472,0.2501,0.2492,0.2518,0.2522,0.252,0.2522,0.2523,0.2525,0.2525,0.2521,0.2521,0.2521,0,0.2249,0.2261,0.2296,0.2311,0.233,0.2369,0.2377,0.2394,0.2416,0.2426,0.2433,0.2457,0.2469,0.249,0.2503,0.2512,0.2507,0.2504,0.2525,0.2526,0.2526,0.2528,0.2528,0.2524,0.2523,0.2523,0.2523,0,0.2236,0.2254,0.226,0.2293,0.2319,0.2334,0.2374,0.2396,0.2421,0.2436,0.2467,0.2481,0.2493,0.2517,0.2518,0.2538,0.2535,0.2532,0.251,0.2531,0.2532,0.2531,0.2527,0.2526,0.2525,0.2525,0,0,0.2155,0.2234,0.2232,0.2253,0.2313,0.2325,0.2361,0.2394,0.2412,0.2444,0.2459,0.2494,0.251,0.2515,0.2536,0.254,0.2557,0.2539,0.2538,0.2538,0.2556,0.2564,0.2564,0.2561,0.256,0.256,0.2564,0,0.2126,0.2154,0.2202,0.2224,0.2242,0.2301,0.2327,0.237,0.241,0.2436,0.2469,0.2493,0.251,0.2528,0.2536,0.2555,0.2553,0.2555,0.2537,0.2536,0.2539,0.2563,0.2385,0.2374,0.2563,0.2563,0.2563,0,0.2086,0.2115,0.2137,0.2201,0.2211,0.223,0.2285,0.2317,0.2378,0.2413,0.2451,0.248,0.2513,0.2515,0.2539,0.2543,0.2543,0.2548,0.2549,0.2531,0.2542,0.238,0.2365,0.2561,0.2562,0.2562,0.2562,0,0.2012,0.2063,0.2081,0.2102,0.2178,0.2194,0.2231,0.2301,0.2342,0.2399,0.2436,0.2471,0.2506,0.2505,0.2547,0.2539,0.2562,0.2552,0.2551,0.2552,0.2381,0.2368,0.2536,0.2536,0.2536,0.2536,0.2536,0,0.1963,0.1971,0.2046,0.2054,0.2073,0.2142,0.2175,0.2225,0.2304,0.2349,0.2415,0.2461,0.2504,0.254,0.2543,0.2563,0.2563,0.2545,0.2551,0.2396,0.2385,0.2524,0.2522,0.2536,0.2536,0.2536,0.2536,0,0.189,0.1937,0.196,0.2026,0.2045,0.2059,0.2154,0.2182,0.2265,0.2328,0.2351,0.2461,0.2516,0.2557,0.2578,0.2572,0.2576,0.2574,0.2402,0.2388,0.2561,0.2562,0.2556,0.2557,0.2557,0.2557,0.2557,0,0.1862,0.1868,0.193,0.1943,0.1973,0.2015,0.2048,0.2149,0.2194,0.2328,0.235,0.2446,0.2513,0.2574,0.2572,0.2577,0.2596,0.2402,0.2349,0.2555,0.2562,0.2562,0.2563,0.2141,0.2137,0.2135,0.2132,0,0.1807,0.1829,0.185,0.1882,0.1912,0.1949,0.2006,0.2043,0.2158,0.2231,0.2329,0.2397,0.2488,0.244,0.2473,0.2446,0.239,0.235,0.2588,0.2185,0.217,0.2175,0.2187,0.2109,0.2111,0.2113,0.2114,0.2115,0.1763,0.1762,0.1792,0.1817,0.1847,0.1868,0.1877,0.1952,0.2022,0.2103,0.2225,0.226,0.2304,0.228,0.2219,0.2167,0.2326,0.22,0.2205,0.2213,0.2186,0.2174,0.2109,0.2111,0.2113,0.2115,0.2116,0,0.1704,0.1711,0.1728,0.1749,0.1747,0.1792,0.1835,0.1827,0.1874,0.1971,0.2048,0.1922,0.1926,0.1947,0.1852,0.1874,0.1817,0.178,0.1673,0.1702,0.1726,0.1669,0.1456,0.1454,0.1451,0.1449,0,0,0.1671,0.1656,0.1666,0.1641,0.1655,0.1627,0.1633,0.1636,0.1676,0.1683,0.1694,0.1851,0.1922,0.1657,0.1641,0.1525,0.159,0.147,0.2011,0.1916,0.1936,0.1996,0.1947,0,0,0,0,0]},{"header":{"parameterUnit":"m.s-1","parameterCategory":2,"la1":30.2991,"la2":30.254,"lo1":-89.0895,"lo2":-89.0444,"dy":0.0017,"dx":0.0017,"nx":28,"ny":28,"refTime":"2025-04-06T09:00:00:Z","depth":"2","parameterNumber":3,"parameterNumberName":"V-component_of_CURRENTS"},"data":[0,0,0,0,0,0,0,0,0,0,0,0,0,0,0,0,0,0,0,0,0,0,0,0,0,0,0,0,0,0,0,0,0,0,0,0,0,0,0,0,0,0,0,0,0,0,0,0,0,0,0,0,0,0,0,0,0,0,-0.0003,-0.0003,0,-0.0019,-0.0019,-0.0019,-0.004,-0.004,-0.004,-0.0041,-0.0118,-0.0119,-0.0121,0,0,0,0,0,0,0,0,0,0,0,0,0,-0.0009,-0.0008,-0.0003,-0.0003,-0.0003,-0.0019,-0.0019,-0.0019,-0.0039,-0.004,-0.0041,-0.0041,-0.0117,-0.0119,-0.0121,0,0,0,0,0,0,0,0,0,0,0,0,0,-0.0012,-0.0008,-0.0003,-0.0017,-0.0018,-0.0019,-0.0019,-0.0019,-0.0039,-0.004,-0.0041,-0.0041,-0.0117,-0.0119,-0.0121,-0.0122,0,0,-0.0129,-0.013,0,0,0,0,0,0,0,0,-0.0012,-0.0012,-0.0014,-0.0016,-0.0017,-0.0029,-0.0049,-0.0057,-0.0039,-0.003,-0.0041,-0.0042,-0.0094,-0.0099,-0.0097,-0.0126,-0.0129,-0.0129,-0.0131,-0.0132,-0.0132,0,0,0,0,0,0,0,-0.0012,-0.0011,-0.0008,-0.0014,-0.0016,-0.0029,-0.0029,-0.0051,-0.0058,-0.0031,-0.0032,-0.0036,-0.0095,-0.0095,-0.0099,-0.013,-0.0129,-0.0131,-0.0133,-0.0134,-0.0177,-0.0177,0,0,0,0,0,0,-0.001,-0.0011,-0.0007,-0.0008,-0.0018,-0.0028,-0.0029,-0.0023,-0.0056,-0.0062,-0.0036,-0.0037,-0.009,-0.0096,-0.0102,-0.0115,-0.0132,-0.0134,-0.0135,-0.0177,-0.0177,-0.0177,0,0,0,0,0,0,-0.001,-0.001,-0.0007,-0.0012,-0.0012,-0.0027,-0.0021,-0.0023,-0.0031,-0.006,-0.0067,-0.0042,-0.0091,-0.0099,-0.012,-0.0118,-0.0135,-0.0137,-0.0178,-0.0177,-0.0177,-0.0136,0,0,0,0,0,0,-0.001,-0.0009,-0.0007,-0.0011,-0.0012,-0.0004,-0.002,-0.0023,-0.0033,-0.0035,-0.0068,-0.0075,-0.0092,-0.0116,-0.0122,-0.0122,-0.0139,-0.0178,-0.0177,-0.0177,-0.0138,-0.0134,-0.0131,0,0,0,0,0,-0.001,0.0001,-0.0006,-0.0006,-0.0007,-0.0003,-0.0004,-0.0017,-0.0033,-0.0028,-0.0052,-0.0074,-0.0117,-0.0117,-0.0125,-0.0126,-0.0178,-0.0178,-0.0177,-0.0139,-0.0135,-0.0131,0,0,0,0,0,0,-0.0002,-0.0,-0.0008,0.0002,-0.0002,-0.0007,-0.0007,-0.0019,-0.0033,-0.0039,-0.0071,-0.0079,-0.0098,-0.0116,-0.0116,-0.0136,-0.0151,-0.0152,-0.012,-0.0116,-0.0113,-0.0086,-0.0141,0,0,0,0,0,0.0002,0.0011,0.0006,0.0013,0.0012,0.0,-0.0003,-0.0008,-0.0021,-0.0028,-0.0051,-0.0076,-0.0098,-0.0111,-0.013,-0.0141,-0.0157,-0.0146,-0.0143,-0.014,-0.0122,-0.0146,-0.0143,-0.0174,-0.0174,-0.0174,0,0,0.0006,0.0007,0.0011,0.0015,0.001,0.0022,-0.0002,-0.0,0.0008,-0.0035,-0.0036,-0.0068,-0.0099,-0.0109,-0.0119,-0.0126,-0.0141,-0.0139,-0.0136,-0.012,-0.0145,-0.0142,-0.014,-0.0174,-0.0174,-0.0174,0,0,0.0028,0.0021,0.004,0.004,0.0038,0.0033,0.0032,0.0027,0.0023,0.0015,-0.0014,-0.0039,-0.0073,-0.0086,-0.0101,-0.0092,-0.0125,-0.0107,-0.0067,-0.009,-0.0088,-0.0086,-0.0108,-0.0108,-0.0103,-0.0103,-0.0102,0,0.0034,0.0057,0.0044,0.0062,0.0067,0.004,0.0063,0.0057,0.0045,0.0046,0.0019,-0.0024,-0.0057,-0.0064,-0.0062,-0.0084,-0.0103,-0.008,-0.0086,-0.0084,-0.0082,-0.0106,-0.0107,-0.01,-0.0101,-0.0101,-0.0101,0,0.0075,0.0088,0.0098,0.0113,0.0116,0.0131,0.0122,0.0123,0.0103,0.0093,0.0076,0.0033,0.001,-0.0012,-0.0037,-0.004,-0.0059,-0.0081,-0.0094,-0.0077,-0.0103,-0.0104,-0.0098,-0.0098,-0.0099,-0.0099,0,0,0.0112,0.0126,0.0131,0.0148,0.0148,0.016,0.0171,0.0181,0.0191,0.0159,0.0167,0.0119,0.0089,0.0071,0.0032,0.0011,-0.0008,-0.0026,-0.0028,-0.0044,-0.006,-0.0081,-0.0085,-0.0035,-0.0035,-0.0035,-0.0085,0,0.0152,0.0198,0.0193,0.0233,0.0257,0.0239,0.0253,0.0253,0.0238,0.0236,0.0188,0.0171,0.0122,0.0105,0.0077,0.0013,-0.0008,0.0008,-0.0077,-0.0079,-0.0096,-0.0086,-0.0064,-0.0107,-0.0086,-0.0087,-0.0087,0,0.0203,0.0228,0.0275,0.0302,0.0311,0.0323,0.0345,0.0357,0.0341,0.0328,0.0302,0.0256,0.022,0.017,0.0085,0.0096,0.003,-0.0022,-0.0026,-0.0055,-0.0102,-0.012,-0.0111,-0.009,-0.0089,-0.0089,-0.0089,0,0.025,0.029,0.0331,0.0339,0.0359,0.0376,0.0385,0.0383,0.0408,0.0386,0.0389,0.033,0.0302,0.0216,0.0102,0.0092,0.0004,-0.0027,-0.0104,-0.0107,-0.0107,-0.011,-0.0078,-0.0078,-0.0078,-0.0078,-0.0078,0,0.0302,0.0336,0.0353,0.0375,0.0427,0.0421,0.047,0.0468,0.0478,0.051,0.0439,0.0447,0.0311,0.0239,0.0131,0.0012,0.0024,-0.0086,-0.0117,-0.0094,-0.0095,-0.0093,-0.0094,-0.008,-0.0079,-0.0079,-0.0079,0,0.0347,0.0356,0.0407,0.0436,0.0449,0.0485,0.0534,0.0572,0.0563,0.0603,0.0598,0.0538,0.0439,0.0299,0.0155,0.0055,-0.0063,-0.0109,-0.0073,-0.0098,-0.0165,-0.0164,-0.0194,-0.0195,-0.0196,-0.0197,-0.0198,0,0.0372,0.0403,0.0454,0.049,0.0503,0.0556,0.0599,0.0615,0.0661,0.0665,0.0692,0.0607,0.057,0.035,0.0147,-0.0044,-0.0071,-0.015,-0.0164,-0.0148,-0.0175,-0.0172,-0.017,-0.0154,-0.0154,-0.0155,-0.0155,0,0.0424,0.0438,0.0479,0.0553,0.0604,0.0672,0.073,0.0782,0.0803,0.0833,0.0854,0.0822,0.0604,0.0416,0.0141,0.001,-0.0121,-0.016,-0.0151,-0.0128,-0.0115,-0.014,-0.0138,-0.0156,-0.0156,-0.0156,-0.0156,-0.0156,0.046,0.05,0.0553,0.0626,0.0689,0.0773,0.0844,0.0908,0.0987,0.1035,0.0987,0.0945,0.0712,0.0372,0.0126,-0.0139,-0.0125,-0.0207,-0.0205,-0.0203,-0.0189,-0.0178,-0.0229,-0.0229,-0.0229,-0.023,-0.023,0,0.0508,0.0552,0.0624,0.0711,0.0793,0.0815,0.0926,0.1002,0.1104,0.1126,0.1142,0.0931,0.0702,0.0424,0.0037,-0.0187,-0.0204,-0.0262,-0.0228,-0.0224,-0.0221,-0.0207,-0.0253,-0.0254,-0.0255,-0.0255,0,0,0.0534,0.0608,0.0647,0.0783,0.0849,0.0969,0.104,0.1142,0.1193,0.1236,0.1204,0.1133,0.0792,0.0515,0.0197,-0.0029,-0.0075,-0.0077,-0.0032,0.005,0.0055,-0.0164,-0.0135,0,0,0,0,0]}],[{"header":{"parameterUnit":"m.s-1","parameterCategory":2,"la1":30.2991,"la2":30.254,"lo1":-89.0895,"lo2":-89.0444,"dy":0.0017,"dx":0.0017,"nx":28,"ny":28,"refTime":"2025-04-06T09:00:00:Z","depth":"4","parameterNumber":2,"parameterNumberName":"U-component_of_CURRENTS"},"data":[0,0,0,0,0,0,0,0,0,0,0,0,0,0,0,0,0,0,0,0,0,0,0,0,0,0,0,0,0,0,0,0,0,0,0,0,0,0,0,0,0,0,0,0,0,0,0,0,0,0,0,0,0,0,0,0,0,0,0.1251,0.1251,0,0.1284,0.1285,0.1285,0.1339,0.134,0.1341,0.1341,0.1412,0.1413,0.1414,0,0,0,0,0,0,0,0,0,0,0,0,0,0.1236,0.1236,0.1251,0.1251,0.1251,0.1284,0.1285,0.1285,0.1339,0.134,0.1341,0.1342,0.1412,0.1413,0.1414,0,0,0,0,0,0,0,0,0,0,0,0,0,0.1256,0.1237,0.1251,0.128,0.1283,0.1284,0.1285,0.1286,0.1339,0.134,0.1341,0.1342,0.1411,0.1413,0.1415,0.1404,0,0,0.142,0.1421,0,0,0,0,0,0,0,0,0.1255,0.1257,0.1276,0.1278,0.1281,0.1306,0.1305,0.1326,0.1339,0.132,0.1341,0.1343,0.1377,0.1382,0.1389,0.1407,0.141,0.142,0.1421,0.1422,0.1423,0,0,0,0,0,0,0,0.1253,0.1256,0.1267,0.1276,0.1279,0.1292,0.1296,0.131,0.1345,0.1322,0.1325,0.1324,0.138,0.1387,0.1391,0.1411,0.142,0.1422,0.1423,0.1424,0.1509,0.151,0,0,0,0,0,0,0.1242,0.1254,0.1266,0.1268,0.1267,0.1291,0.1296,0.1299,0.1344,0.1351,0.1323,0.1327,0.1384,0.1389,0.1394,0.1473,0.1422,0.1424,0.1425,0.1507,0.1509,0.151,0,0,0,0,0,0,0.1242,0.1243,0.1264,0.1259,0.1263,0.129,0.1293,0.1299,0.1333,0.1344,0.1353,0.1353,0.1385,0.1392,0.1437,0.1473,0.1425,0.1426,0.1506,0.1508,0.1509,0.1573,0,0,0,0,0,0,0.1241,0.1243,0.1256,0.1259,0.1262,0.1282,0.1292,0.1299,0.1327,0.1333,0.1372,0.1378,0.1386,0.1434,0.1439,0.1474,0.1428,0.1504,0.1507,0.1509,0.1569,0.1577,0.1583,0,0,0,0,0,0.1241,0.1248,0.1257,0.1259,0.1275,0.1282,0.1287,0.1311,0.1328,0.1345,0.1379,0.1378,0.1451,0.1437,0.1442,0.1478,0.1503,0.1506,0.1509,0.1566,0.1575,0.1583,0,0,0,0,0,0,0.125,0.1254,0.1264,0.1274,0.1285,0.1291,0.1313,0.1322,0.1362,0.138,0.1394,0.1402,0.1459,0.1454,0.1437,0.1508,0.1477,0.1481,0.1519,0.1527,0.1534,0.1539,0.1429,0,0,0,0,0,0.1255,0.1267,0.1269,0.1282,0.1292,0.1307,0.1319,0.1333,0.1357,0.1377,0.1411,0.1442,0.1467,0.1486,0.1512,0.1545,0.1542,0.157,0.1577,0.1583,0.159,0.1621,0.1631,0.1519,0.1519,0.1519,0,0,0.1261,0.1266,0.1274,0.1285,0.1303,0.1324,0.132,0.1345,0.1373,0.1377,0.145,0.1473,0.1483,0.1532,0.1555,0.1536,0.1613,0.1586,0.1592,0.1596,0.1625,0.1636,0.1646,0.1521,0.152,0.152,0,0,0.1275,0.1289,0.1306,0.1319,0.1342,0.1351,0.1363,0.1392,0.1422,0.1467,0.149,0.1533,0.1572,0.1596,0.1604,0.1658,0.1652,0.1669,0.1706,0.1736,0.1746,0.1754,0.176,0.1768,0.1667,0.1667,0.1667,0,0.1294,0.1305,0.1312,0.1334,0.1354,0.1368,0.1396,0.1419,0.1465,0.1498,0.1501,0.1587,0.1599,0.1653,0.1677,0.1675,0.1685,0.1675,0.1746,0.1754,0.1762,0.1766,0.1774,0.167,0.167,0.167,0.1669,0,0.1311,0.1334,0.1349,0.1385,0.1406,0.1432,0.1458,0.1504,0.1538,0.1561,0.1637,0.166,0.1709,0.172,0.1714,0.1781,0.1768,0.1756,0.1726,0.1777,0.1777,0.1785,0.1675,0.1674,0.1673,0.1672,0,0,0.1316,0.1357,0.1366,0.1385,0.1438,0.1447,0.1514,0.1564,0.1606,0.166,0.1718,0.177,0.1793,0.1804,0.1815,0.1838,0.1895,0.1825,0.1825,0.1832,0.1955,0.1841,0.1838,0.1904,0.1906,0.1907,0.1932,0,0.1337,0.1376,0.1401,0.1447,0.1466,0.1514,0.1564,0.1615,0.1663,0.1725,0.1762,0.1819,0.182,0.185,0.188,0.1895,0.192,0.1888,0.1903,0.1903,0.1797,0.1845,0.1913,0.1938,0.1939,0.1941,0.1941,0,0.1336,0.1364,0.1414,0.1465,0.1482,0.1522,0.1606,0.1653,0.1739,0.1779,0.1853,0.1883,0.1948,0.1926,0.199,0.1975,0.1978,0.1976,0.1977,0.1854,0.1804,0.1877,0.1955,0.1954,0.1953,0.1952,0.1951,0,0.1298,0.1363,0.1404,0.1424,0.1493,0.1541,0.1591,0.1679,0.1731,0.1826,0.1873,0.1947,0.1991,0.202,0.2035,0.2023,0.2081,0.2056,0.1955,0.1946,0.2013,0.2004,0.2099,0.2099,0.2099,0.2099,0.2099,0,0.1278,0.1308,0.1391,0.1406,0.1464,0.1522,0.16,0.1662,0.1761,0.1816,0.1903,0.195,0.2021,0.2062,0.2061,0.2032,0.2108,0.197,0.1952,0.2037,0.2031,0.2018,0.2008,0.21,0.2099,0.2099,0.2099,0,0.1216,0.1273,0.1317,0.1408,0.1443,0.1484,0.1605,0.1651,0.1755,0.1834,0.1871,0.1976,0.2021,0.2069,0.2105,0.2051,0.2037,0.2009,0.2098,0.2082,0.1873,0.1866,0.1888,0.1885,0.1882,0.1879,0.1877,0,0.1184,0.1202,0.1308,0.1343,0.1392,0.1472,0.1524,0.164,0.1688,0.1829,0.1849,0.1946,0.1998,0.1955,0.2014,0.2006,0.1985,0.1961,0.1916,0.1875,0.1855,0.1853,0.1851,0.1872,0.1871,0.187,0.1869,0,0.1124,0.1178,0.1219,0.1292,0.1354,0.1413,0.1496,0.1523,0.1644,0.1757,0.1783,0.1809,0.1856,0.1876,0.189,0.1881,0.1964,0.1927,0.1933,0.1891,0.1855,0.1838,0.184,0.1859,0.186,0.1861,0.1862,0,0.1089,0.1106,0.117,0.1224,0.1297,0.1323,0.1381,0.143,0.1491,0.1637,0.1642,0.1738,0.1833,0.1812,0.1824,0.181,0.1777,0.1709,0.1726,0.1738,0.1679,0.1611,0.153,0,0,0,0,0,0.1044,0.1051,0.1095,0.1141,0.1208,0.1248,0.1343,0.1401,0.1519,0.1496,0.1563,0.1597,0.1619,0.1672,0.1626,0.1762,0.1787,0.1701,0.1717,0.1799,0.1811,0.1756,0,0,0,0,0,0,0.101,0.1047,0.1062,0.106,0.1074,0.1131,0.1185,0.1265,0.1258,0.1383,0.1403,0.15,0.1545,0.1624,0.1594,0.161,0.1587,0.1767,0.1763,0.1792,0.1803,0.1813,0.1761,0,0,0,0,0]},{"header":{"parameterUnit":"m.s-1","parameterCategory":2,"la1":30.2991,"la2":30.254,"lo1":-89.0895,"lo2":-89.0444,"dy":0.0017,"dx":0.0017,"nx":28,"ny":28,"refTime":"2025-04-06T09:00:00:Z","depth":"4","parameterNumber":3,"parameterNumberName":"V-component_of_CURRENTS"},"data":[0,0,0,0,0,0,0,0,0,0,0,0,0,0,0,0,0,0,0,0,0,0,0,0,0,0,0,0,0,0,0,0,0,0,0,0,0,0,0,0,0,0,0,0,0,0,0,0,0,0,0,0,0,0,0,0,0,0,0.0247,0.0247,0,0.0254,0.0254,0.0254,0.0246,0.0246,0.0246,0.0246,0.0235,0.0235,0.0235,0,0,0,0,0,0,0,0,0,0,0,0,0,0.021,0.0211,0.0247,0.0247,0.0247,0.0254,0.0254,0.0253,0.0246,0.0246,0.0246,0.0246,0.0235,0.0235,0.0235,0,0,0,0,0,0,0,0,0,0,0,0,0,0.0221,0.0211,0.0247,0.0245,0.0245,0.0254,0.0254,0.0253,0.0246,0.0246,0.0246,0.0246,0.0235,0.0235,0.0235,0.0238,0,0,0.0234,0.0234,0,0,0,0,0,0,0,0,0.0221,0.0223,0.0245,0.0246,0.0246,0.025,0.0237,0.0248,0.0246,0.0245,0.0246,0.0246,0.0239,0.0239,0.0239,0.0238,0.0237,0.0234,0.0234,0.0234,0.0234,0,0,0,0,0,0,0,0.022,0.0222,0.0248,0.0246,0.0246,0.0238,0.024,0.0239,0.0242,0.0245,0.0245,0.0247,0.0239,0.0239,0.0239,0.0237,0.0234,0.0234,0.0234,0.0234,0.0239,0.0239,0,0,0,0,0,0,0.0223,0.0222,0.0248,0.0249,0.0234,0.0239,0.0241,0.0248,0.0242,0.0242,0.0248,0.0247,0.024,0.0239,0.0238,0.0248,0.0234,0.0234,0.0234,0.0239,0.0239,0.0239,0,0,0,0,0,0,0.0222,0.0226,0.0248,0.0236,0.0238,0.0241,0.0248,0.0248,0.0251,0.0245,0.0244,0.0251,0.024,0.0239,0.024,0.0247,0.0234,0.0233,0.0239,0.0239,0.0239,0.0263,0,0,0,0,0,0,0.0221,0.0225,0.0231,0.0236,0.0239,0.0257,0.0249,0.0248,0.0253,0.0253,0.0248,0.0246,0.0239,0.0241,0.024,0.0246,0.0233,0.0238,0.0239,0.0239,0.0262,0.0264,0.0266,0,0,0,0,0,0.022,0.0232,0.0232,0.0235,0.0248,0.0257,0.0258,0.0258,0.0254,0.0258,0.0253,0.0246,0.0243,0.0241,0.024,0.0247,0.0238,0.0239,0.0239,0.0261,0.0264,0.0266,0,0,0,0,0,0,0.0218,0.0233,0.0232,0.0248,0.0253,0.0257,0.0263,0.0261,0.0261,0.0261,0.0251,0.025,0.0251,0.0247,0.0244,0.0249,0.0239,0.024,0.0256,0.0258,0.026,0.0258,0.0233,0,0,0,0,0,0.0221,0.0236,0.0243,0.0256,0.0259,0.0261,0.0265,0.0266,0.0267,0.0267,0.0261,0.0256,0.0253,0.0254,0.0249,0.0256,0.023,0.0259,0.0261,0.0263,0.026,0.0219,0.0217,0.0241,0.0241,0.0241,0,0,0.0225,0.0235,0.0243,0.0257,0.0261,0.0273,0.0263,0.0274,0.0283,0.0266,0.0273,0.0262,0.0255,0.0259,0.026,0.0257,0.0244,0.0263,0.0265,0.0261,0.022,0.0217,0.0215,0.0242,0.0242,0.0242,0,0,0.0241,0.0248,0.0265,0.0271,0.0282,0.0284,0.0289,0.0292,0.0293,0.0301,0.0287,0.0278,0.0281,0.0271,0.0269,0.028,0.0253,0.0282,0.0295,0.0257,0.0254,0.0251,0.022,0.0215,0.0288,0.0288,0.0288,0,0.0242,0.0267,0.027,0.0285,0.0295,0.0291,0.0308,0.031,0.0313,0.0311,0.0308,0.0292,0.0286,0.0281,0.0286,0.0284,0.0259,0.0287,0.0258,0.0255,0.0252,0.0221,0.0214,0.0289,0.0289,0.0289,0.0288,0,0.027,0.0288,0.0298,0.0318,0.0327,0.0342,0.0346,0.0349,0.0349,0.0344,0.0337,0.032,0.0309,0.0307,0.0303,0.0282,0.0271,0.0261,0.025,0.0251,0.0218,0.0211,0.0291,0.029,0.029,0.0289,0,0,0.0278,0.0311,0.0315,0.0333,0.0347,0.036,0.0372,0.038,0.0386,0.0374,0.0373,0.0359,0.0338,0.0333,0.0317,0.0288,0.0247,0.027,0.0267,0.0237,0.0163,0.0161,0.0153,0.023,0.0229,0.0228,0.0151,0,0.0298,0.0337,0.0345,0.0381,0.0403,0.0403,0.0415,0.0419,0.0415,0.0409,0.038,0.0373,0.0353,0.0348,0.0312,0.0265,0.0228,0.0269,0.0169,0.0166,0.0162,0.0144,0.0224,0.0145,0.0143,0.0142,0.0141,0,0.0325,0.0349,0.0388,0.0422,0.043,0.0446,0.0464,0.0475,0.046,0.0453,0.0428,0.0403,0.0364,0.0344,0.0251,0.0277,0.022,0.0179,0.0174,0.0158,0.015,0.0143,0.0128,0.0129,0.013,0.0131,0.0131,0,0.0343,0.0382,0.0417,0.0428,0.046,0.0473,0.0488,0.0487,0.0503,0.0478,0.0478,0.0419,0.0399,0.0314,0.0234,0.0237,0.0126,0.0118,0.0058,0.0058,0.0072,0.0076,0.0037,0.0037,0.0037,0.0038,0.0038,0,0.0367,0.0396,0.0429,0.0449,0.0489,0.05,0.0535,0.0533,0.0538,0.0555,0.0503,0.0497,0.0389,0.032,0.0233,0.0127,0.012,0.0052,0.0033,0.0086,0.0092,0.0067,0.0072,0.0035,0.0035,0.0036,0.0036,0,0.0382,0.0404,0.0449,0.0487,0.0502,0.0531,0.0578,0.0602,0.0596,0.0614,0.0609,0.055,0.0457,0.0346,0.021,0.0137,0.0029,-0.0009,0.006,0.0048,-0.0014,-0.0007,-0.009,-0.0091,-0.0091,-0.0092,-0.0092,0,0.0392,0.0418,0.0476,0.0507,0.0526,0.0574,0.061,0.0629,0.0656,0.065,0.0659,0.058,0.0526,0.0338,0.0212,0.0033,0.001,-0.0051,-0.0043,-0.002,-0.003,-0.0022,-0.0014,-0.0094,-0.0094,-0.0094,-0.0094,0,0.0409,0.0432,0.0468,0.0534,0.0581,0.0637,0.0686,0.0711,0.0732,0.0727,0.07,0.0602,0.0495,0.0345,0.0205,0.0079,-0.0015,-0.0059,-0.0059,-0.0051,-0.0025,-0.0033,-0.0024,-0.0097,-0.0096,-0.0096,-0.0096,0,0.0419,0.0448,0.0501,0.0558,0.0622,0.0681,0.0707,0.074,0.0765,0.0754,0.0744,0.0627,0.0558,0.0368,0.0242,0.0114,0.0078,0.0034,0.0029,0.003,0.0087,0.0139,0.0095,0,0,0,0,0,0.0426,0.0464,0.0521,0.059,0.0655,0.0697,0.0753,0.0774,0.0792,0.078,0.0764,0.0665,0.0475,0.0396,0.0267,0.0219,0.005,0.0061,-0.0005,-0.011,-0.0107,-0.0061,0,0,0,0,0,0,0.0432,0.0486,0.0521,0.0608,0.0662,0.0739,0.0779,0.0792,0.0785,0.0779,0.0684,0.0631,0.045,0.0553,0.0266,0.0226,0.0164,-0.0027,-0.003,-0.0112,-0.0109,-0.0107,-0.0058,0,0,0,0,0]}]]